Theta_e
320 316 316 317 318 320 321 321 321 322 323 322 323 327 327 327 329 332 334 337 339 339 338 337 334 331 329 328 327 327 329 330 331 331 331 336 341 344 343 346 346 343 344 344
319 316 318 321 321 322 322 323 321 322 323 324 322 322 323 323 326 328 328 333 333 338 338 338 335 334 331 328 328 328 328 329 330 332 331 329 332 338 341 342 345 345 342 342
318 321 322 323 324 325 324 323 321 321 322 322 323 321 322 322 326 328 328 329 330 337 339 338 336 335 334 332 330 329 328 328 329 331 333 332 331 332 340 343 343 344 344 342
319 321 324 324 324 323 323 322 322 323 323 321 324 322 322 324 321 324 327 329 334 337 339 339 338 336 337 336 335 334 334 331 328 327 330 334 333 332 333 338 340 339 343 343
324 324 324 324 325 323 321 323 325 326 323 324 323 321 322 324 324 323 327 333 335 339 339 342 342 342 339 337 335 336 337 338 337 333 332 327 325 327 331 333 340 341 339 341
326 328 327 326 325 324 324 325 326 325 322 321 322 323 322 324 329 331 333 335 338 339 340 341 341 342 342 344 345 343 336 334 334 334 332 329 328 327 330 332 333 339 341 340
326 327 326 326 324 324 324 323 322 324 323 325 327 328 322 331 332 333 334 337 339 340 340 340 340 339 339 338 340 345 348 347 339 336 335 336 334 330 331 333 334 335 337 341
327 329 326 325 324 324 323 322 322 329 327 329 329 332 334 337 337 336 335 335 335 337 337 337 334 335 335 334 335 339 337 339 345 349 347 347 347 348 347 340 334 333 334 337
330 332 327 327 327 326 327 325 323 327 329 327 327 335 337 337 336 336 335 334 333 332 333 333 332 330 329 329 329 332 330 329 331 332 337 342 339 344 350 348 348 349 344 334
330 329 329 327 327 326 326 326 325 325 330 332 330 334 336 337 338 335 333 333 331 331 330 329 329 328 327 327 326 326 327 326 325 327 328 329 338 341 343 345 351 351 350 350
327 329 330 329 327 327 326 325 328 326 327 329 330 340 340 337 335 333 332 331 331 330 329 328 328 327 326 326 325 324 324 324 323 323 323 323 324 330 336 341 344 347 349 347
332 331 333 332 328 327 327 328 329 328 330 329 329 332 336 334 334 333 332 331 330 330 329 328 327 327 326 324 323 323 322 322 321 321 321 322 321 320 320 321 337 345 346 345
334 330 329 327 326 328 331 331 331 329 330 332 331 331 334 334 332 332 330 327 325 324 323 323 326 323 322 321 321 319 318 318 319 319 319 320 320 320 320 318 319 324 335 344
332 331 331 330 330 328 328 329 330 330 332 332 330 331 337 333 331 329 326 325 324 321 320 321 321 320 319 318 317 316 317 317 317 317 318 317 317 319 321 321 320 318 323 326
330 331 331 328 328 328 329 329 327 326 329 329 328 327 325 321 319 320 319 319 320 319 319 318 318 318 317 317 317 317 317 317 318 318 317 317 319 318 319 318 320 320 319 319
331 332 330 330 329 327 326 324 323 323 323 322 322 324 320 320 319 319 319 319 318 318 317 317 317 317 317 318 318 319 320 321 321 321 321 320 319 319 318 318 320 319 320 319
330 328 329 329 328 325 325 324 324 324 322 325 325 322 319 318 319 318 318 318 318 318 317 318 319 320 319 319 319 320 320 319 318 317 317 319 320 320 322 320 319 319 321 321
324 327 326 327 327 328 323 325 325 323 322 322 322 319 319 318 318 319 318 318 319 319 319 319 319 319 319 318 319 319 318 317 316 316 317 316 316 318 318 320 321 321 320 321
324 325 325 326 326 325 324 323 324 325 321 319 319 318 318 317 317 319 318 318 319 319 318 318 318 317 317 317 317 316 317 318 318 317 318 318 318 317 316 315 317 318 321 321
326 323 323 324 327 326 323 320 320 320 322 319 317 317 318 318 316 317 318 318 318 317 316 316 316 315 315 316 317 319 319 318 318 317 318 318 317 315 315 315 315 315 316 320
321 323 323 322 324 324 322 320 319 322 321 318 317 317 318 317 318 317 317 316 316 317 315 313 314 315 316 318 317 317 317 317 317 317 317 318 316 316 316 316 316 315 315 316
323 322 322 323 324 325 319 319 322 318 317 317 317 317 317 317 317 316 316 316 315 314 313 314 315 315 316 316 316 316 316 316 317 317 316 318 318 317 317 316 316 315 315 315
323 323 324 321 322 319 317 316 316 316 318 317 316 316 316 316 316 316 316 315 314 312 314 315 315 316 316 315 315 314 314 315 316 316 316 316 316 317 316 317 317 317 316 317
323 321 318 317 319 318 317 318 317 317 317 316 316 315 315 315 316 315 314 314 313 314 314 315 315 316 315 314 314 313 314 315 315 315 316 316 316 316 316 316 316 317 316 316
319 318 318 318 318 318 317 317 316 316 316 317 315 315 315 315 314 315 314 313 311 314 315 316 315 314 314 313 312 312 312 314 314 315 315 316 317 317 317 317 317 317 316 316
317 318 317 318 317 318 317 316 317 316 316 316 315 315 316 316 314 314 313 312 312 314 315 314 313 312 312 313 312 312 312 311 312 313 314 316 315 315 314 313 314 315 316 317
Wind_Speed
14 2 7 13 13 14 9 8 8 8 8 7 6 4 2 4 6 8 23 33 38 45 42 39 37 36 35 33 32 32 34 30 28 30 33 33 35 31 29 27 24 26 23 21
3 9 14 12 11 12 8 4 8 9 8 4 7 7 5 8 10 14 9 20 17 36 41 42 40 38 37 36 34 32 32 32 30 29 28 31 33 33 31 32 29 25 28 27
9 11 16 14 4 4 3 4 7 8 8 8 6 9 8 10 17 17 18 2 13 15 43 45 45 41 37 37 36 34 34 32 34 29 29 29 28 29 33 33 33 30 28 31
9 17 9 5 4 4 3 9 11 9 3 3 4 5 9 8 11 6 16 15 36 32 31 28 30 38 38 37 32 32 28 31 30 35 36 33 35 36 35 33 33 32 33 31
10 10 7 4 4 5 9 5 5 6 4 5 9 3 9 7 7 8 15 32 40 46 39 30 22 20 21 24 31 31 32 30 29 31 32 39 41 39 35 36 34 34 34 39
9 15 2 1 3 7 6 5 5 5 2 4 8 6 9 7 14 11 20 32 35 36 38 32 25 19 19 17 13 17 36 38 35 34 36 41 41 42 40 39 38 39 35 38
10 10 5 7 4 3 3 5 3 4 2 5 7 1 7 11 15 18 19 30 32 31 32 34 30 25 23 17 12 16 15 11 32 38 36 34 35 43 44 41 41 40 42 41
6 11 12 7 6 6 7 9 5 2 1 1 7 5 4 20 28 31 35 34 34 30 26 26 29 27 24 23 18 15 21 18 16 1 13 25 26 29 34 40 44 45 43 45
4 9 8 10 5 5 4 4 11 1 3 4 2 10 13 17 14 23 25 31 30 30 28 24 21 22 24 20 20 15 16 16 10 8 4 9 10 11 25 31 37 41 42 49
1 4 2 6 7 7 1 3 5 4 2 3 4 4 6 13 14 13 15 25 26 24 25 24 20 19 17 18 17 15 9 15 15 13 12 12 11 10 11 16 23 30 33 34
4 4 8 5 2 3 6 2 1 4 4 3 2 3 2 10 13 14 19 22 19 19 17 16 14 15 14 13 15 17 18 15 21 23 24 21 21 20 19 17 15 17 28 33
1 3 2 6 9 6 5 1 5 5 5 1 3 4 8 13 16 24 21 17 15 13 12 7 7 6 5 7 9 11 13 13 20 22 25 28 25 24 24 24 24 22 22 25
3 1 2 9 7 8 4 6 2 5 3 1 3 4 6 18 17 21 21 22 20 19 18 20 15 17 14 12 13 17 19 19 21 22 24 26 28 31 32 29 27 27 27 28
5 3 3 5 4 3 7 9 5 5 3 4 5 3 9 9 9 18 22 19 16 15 15 17 15 17 18 20 23 22 19 23 26 22 25 31 33 29 28 30 32 32 33 32
4 1 5 6 9 8 8 9 9 6 5 4 4 4 6 8 9 19 22 21 22 21 19 19 19 22 24 25 26 26 26 25 26 30 32 32 30 31 31 32 31 33 36 38
2 1 7 5 8 10 10 11 9 10 10 7 5 11 9 21 21 21 22 22 21 19 18 20 23 27 27 26 27 27 28 28 28 28 30 32 34 33 37 34 32 35 35 39
5 3 3 3 6 10 7 5 7 6 10 2 5 6 13 9 16 16 20 18 15 14 16 17 17 18 20 22 26 25 29 34 38 42 42 39 37 34 35 35 37 36 37 35
3 3 2 3 5 3 8 5 6 18 13 14 12 9 14 14 13 17 19 17 16 17 18 19 22 24 25 27 28 33 36 39 39 38 36 38 36 34 39 33 29 33 36 38
8 5 1 2 3 9 10 6 5 3 6 9 8 10 14 12 4 6 24 23 21 21 21 22 26 30 33 34 36 36 34 37 40 42 40 41 39 43 43 39 42 39 34 37
8 8 5 2 2 4 2 7 15 5 3 10 14 13 18 20 6 5 25 22 23 26 27 28 30 30 24 25 31 30 35 38 41 42 39 37 41 39 39 40 41 42 41 35
4 2 6 4 5 3 4 11 8 1 3 7 13 16 16 6 8 16 21 23 21 16 23 30 27 25 26 29 30 33 35 37 39 38 39 38 37 38 41 42 42 41 39 41
7 6 4 4 5 8 5 5 4 5 5 9 12 11 9 10 14 18 18 17 21 28 25 20 21 24 27 31 31 34 37 38 37 39 39 36 38 39 42 44 43 40 38 38
1 4 5 5 4 14 14 16 13 8 13 11 8 5 10 12 15 17 12 22 26 20 19 21 24 24 26 30 33 38 34 31 31 35 34 35 37 36 35 36 38 38 36 36
5 4 4 5 6 13 17 23 16 10 8 6 4 7 10 15 19 10 18 16 22 19 20 22 22 25 26 31 31 29 31 29 30 35 34 34 33 34 32 32 35 38 33 32
1 3 2 1 9 21 18 16 10 8 4 4 5 6 11 17 14 15 12 15 17 18 21 20 20 20 25 28 30 34 33 32 30 32 32 32 33 33 34 34 34 32 32 34
4 0 2 3 8 10 10 8 5 3 5 6 7 9 12 17 6 10 14 17 12 15 16 21 19 22 28 30 30 32 32 32 28 29 30 30 31 33 38 40 39 31 29 29
Wind_Direction
211 153 217 225 218 231 250 265 270 300 328 23 0 329 258 278 281 240 230 193 183 190 192 193 193 192 195 201 200 203 208 214 213 219 212 209 206 205 208 211 213 229 236 237
298 221 236 232 237 232 262 339 321 316 319 347 310 295 273 296 268 278 295 198 206 194 185 192 193 191 194 200 204 206 209 216 221 225 229 224 218 217 222 213 213 219 233 237
209 241 230 241 294 351 6 312 300 273 305 335 353 331 305 273 252 248 267 256 60 148 185 192 191 192 194 200 205 210 213 217 224 227 234 236 237 232 228 227 222 219 229 238
219 252 218 205 260 297 282 246 245 252 332 284 69 280 284 251 236 234 252 91 74 66 174 182 183 190 200 206 210 214 218 221 225 230 230 234 237 237 237 237 237 231 227 239
252 226 256 270 197 205 233 280 5 2 6 24 315 19 276 306 196 226 92 90 88 86 84 91 172 150 203 213 213 225 229 228 230 230 240 241 241 246 244 239 238 242 241 234
269 280 271 209 253 222 279 7 352 345 25 334 249 180 284 273 103 94 83 94 93 93 88 83 93 113 93 105 97 235 237 233 231 239 237 240 247 248 247 244 239 235 239 243
284 266 220 174 312 269 137 55 347 335 10 211 266 8 220 97 102 111 96 84 90 93 90 85 82 75 68 63 84 73 71 242 247 244 247 250 251 251 250 253 248 244 240 241
253 269 207 163 181 204 182 158 168 239 220 231 296 47 30 76 65 70 74 79 81 83 84 83 75 73 74 74 73 78 68 68 64 204 286 273 278 280 275 265 259 252 250 247
2 333 128 140 175 166 299 159 222 162 296 44 142 76 57 76 75 73 72 73 73 76 81 80 72 70 66 61 62 72 63 42 29 18 348 67 48 342 279 272 273 271 264 252
37 356 109 146 58 335 220 244 21 358 117 261 315 149 160 117 110 92 75 66 66 71 67 73 68 60 50 40 30 28 29 15 353 330 316 318 293 297 313 323 276 272 272 271
66 81 299 24 158 322 329 272 341 128 129 177 344 320 354 113 108 99 82 71 62 57 59 51 51 41 36 29 27 20 15 8 345 331 322 316 311 304 298 301 302 291 274 273
54 114 351 284 307 309 309 345 120 109 304 5 134 284 112 103 106 103 97 90 85 64 62 46 51 30 13 10 5 349 340 345 338 331 328 323 315 311 310 308 287 287 282 270
326 56 34 334 336 12 0 7 37 111 93 219 111 268 88 95 90 95 89 68 54 41 34 35 51 49 30 360 336 334 330 323 311 312 317 315 314 313 313 305 301 296 284 276
49 21 131 198 225 332 321 319 330 131 125 225 210 155 100 60 63 62 64 56 45 35 30 30 19 5 354 346 342 337 332 319 320 315 308 309 311 312 308 309 308 298 295 290
88 75 9 305 305 316 297 305 309 315 234 172 257 63 93 88 75 52 40 34 53 43 32 14 358 347 342 338 334 332 329 327 320 317 315 313 310 310 304 305 301 302 300 295
35 45 25 322 312 301 287 274 278 275 279 277 240 110 116 79 64 44 52 53 44 24 6 349 337 331 332 330 329 327 323 324 321 320 320 313 312 304 303 305 299 301 294 299
125 114 61 272 344 347 312 250 259 246 44 45 96 136 85 68 61 41 71 51 34 10 349 339 339 338 334 330 331 322 318 313 312 312 306 303 301 304 309 303 299 299 293 295
95 81 93 263 335 253 249 345 110 81 46 52 75 70 63 52 41 61 45 32 17 7 358 347 341 336 326 324 321 318 319 316 319 319 317 319 317 312 295 295 305 299 294 295
154 133 176 184 230 286 325 13 359 36 51 33 61 55 46 28 21 110 6 6 3 355 348 335 327 320 316 316 314 315 318 319 318 321 316 314 312 311 309 308 290 294 294 294
158 149 141 183 255 276 75 41 5 20 77 30 45 35 29 20 25 342 346 343 333 329 329 328 330 330 332 335 332 324 320 319 318 320 316 308 306 309 312 310 309 296 287 290
119 150 176 193 216 227 20 36 349 49 186 26 43 43 35 38 357 332 323 328 333 333 329 329 322 329 331 331 326 322 324 323 322 318 319 311 313 305 308 309 310 307 294 285
168 157 198 211 222 241 348 46 81 141 95 70 63 39 16 342 322 321 322 330 331 329 336 336 332 332 335 336 337 332 326 322 317 314 316 313 312 313 306 307 308 305 301 292
160 162 150 137 179 133 105 123 128 118 89 58 37 6 343 324 315 317 334 330 337 340 331 336 337 338 337 337 333 329 331 332 330 323 319 319 319 318 318 312 310 310 305 296
60 40 92 89 126 150 132 99 97 86 70 23 357 340 333 316 316 335 332 333 334 340 340 337 339 340 336 339 339 338 334 339 339 344 337 334 330 331 328 321 314 307 304 299
159 73 75 102 81 98 81 80 71 69 76 8 344 325 322 331 339 348 340 334 340 332 341 344 343 343 338 340 346 349 348 340 336 340 342 342 342 342 338 332 325 318 310 305
48 12 133 158 89 92 80 62 86 66 22 331 327 324 329 330 331 322 327 325 345 345 344 336 353 347 344 351 353 355 358 351 342 332 344 344 344 341 336 331 326 320 316 311